[[{"header":{"parameterUnit":"m.s-1","parameterCategory":2,"la1":30.2991,"la2":30.254,"lo1":-89.0895,"lo2":-89.0444,"dy":0.0017,"dx":0.0017,"nx":28,"ny":28,"refTime":"2025-01-09T09:00:00:Z","depth":"0","parameterNumber":2,"parameterNumberName":"U-component_of_CURRENTS"},"data":[0,0,0,0,0,0,0,0,0,0,0,0,0,0,0,0,0,0,0,0,0,0,0,0,0,0,0,0,0,0,0,0,0,0,0,0,0,0,0,0,0,0,0,0,0,0,0,0,0,0,0,0,0,0,0,0,0,0,0.4075,0.4077,0,0.4174,0.4175,0.4176,0.4198,0.4197,0.4197,0.4196,0.4279,0.4282,0.4285,0,0,0,0,0,0,0,0,0,0,0,0,0,0.3928,0.3931,0.4075,0.4077,0.4078,0.4174,0.4175,0.4177,0.4198,0.4197,0.4196,0.4196,0.4279,0.4282,0.4285,0,0,0,0,0,0,0,0,0,0,0,0,0,0.4004,0.3931,0.4075,0.4102,0.4106,0.4174,0.4175,0.4177,0.4198,0.4197,0.4196,0.4196,0.4277,0.4281,0.4285,0.4324,0,0,0.4298,0.4299,0,0,0,0,0,0,0,0,0.3999,0.4009,0.4097,0.4101,0.4105,0.4175,0.4154,0.4226,0.4198,0.416,0.4196,0.4195,0.4246,0.4252,0.4269,0.4328,0.4332,0.4298,0.43,0.4302,0.4303,0,0,0,0,0,0,0,0.3994,0.4005,0.4112,0.4099,0.4104,0.4118,0.4128,0.4168,0.4203,0.4163,0.4166,0.4181,0.4247,0.4265,0.4271,0.4333,0.4298,0.4301,0.4304,0.4305,0.4464,0.4466,0,0,0,0,0,0,0.3987,0.4,0.4109,0.4115,0.4052,0.4122,0.4132,0.4151,0.4203,0.4211,0.4182,0.4182,0.4258,0.4266,0.4274,0.4344,0.4302,0.4306,0.4308,0.4462,0.4464,0.4466,0,0,0,0,0,0,0.3984,0.3996,0.4105,0.4061,0.4077,0.4125,0.4146,0.4154,0.4175,0.4218,0.4225,0.4196,0.4258,0.4268,0.4317,0.4347,0.4307,0.4311,0.446,0.4463,0.4465,0.4472,0,0,0,0,0,0,0.3979,0.3994,0.4006,0.4061,0.4079,0.4152,0.4148,0.4156,0.4187,0.4188,0.4233,0.4239,0.4258,0.4311,0.4321,0.4352,0.4314,0.4458,0.4461,0.4464,0.447,0.4475,0.4479,0,0,0,0,0,0.3974,0.3992,0.4006,0.4019,0.4093,0.4154,0.4164,0.4193,0.4188,0.4207,0.4233,0.4238,0.434,0.4315,0.4327,0.4359,0.4456,0.446,0.4464,0.4467,0.4474,0.4479,0,0,0,0,0,0,0.3927,0.3998,0.4014,0.4051,0.4102,0.4158,0.418,0.4197,0.4233,0.4234,0.4259,0.4269,0.4329,0.4345,0.4317,0.4418,0.4401,0.4407,0.4399,0.4406,0.441,0.4392,0.4318,0,0,0,0,0,0.3925,0.3958,0.4026,0.4053,0.4083,0.4131,0.4157,0.4183,0.4223,0.4238,0.4268,0.4307,0.4356,0.4377,0.4424,0.4472,0.4486,0.4504,0.4508,0.4512,0.4507,0.4553,0.4561,0.448,0.448,0.448,0,0,0.3909,0.3956,0.397,0.4046,0.4086,0.4134,0.4144,0.4194,0.4229,0.4243,0.4292,0.4329,0.4376,0.4435,0.4463,0.4448,0.4546,0.4517,0.452,0.4513,0.4558,0.4566,0.4573,0.4482,0.4482,0.4482,0,0,0.39,0.3943,0.3971,0.4023,0.4096,0.4136,0.4151,0.4217,0.4243,0.43,0.4324,0.4368,0.4438,0.4474,0.4502,0.4561,0.4575,0.4586,0.4589,0.4634,0.464,0.4646,0.4679,0.4687,0.4581,0.4581,0.4581,0,0.3876,0.3928,0.3986,0.4036,0.4076,0.4136,0.4176,0.4223,0.4291,0.4319,0.4317,0.4427,0.4456,0.4532,0.4547,0.457,0.4595,0.4558,0.4637,0.4643,0.4649,0.4681,0.4691,0.4582,0.4582,0.4582,0.4582,0,0.3897,0.3942,0.3966,0.4048,0.4099,0.4146,0.4225,0.4271,0.4305,0.4349,0.4429,0.4472,0.4533,0.4557,0.4566,0.4633,0.4639,0.4641,0.4614,0.4657,0.4689,0.4699,0.4583,0.4583,0.4583,0.4583,0,0,0.3834,0.3954,0.3962,0.3999,0.4111,0.4151,0.4227,0.4309,0.4362,0.4418,0.4482,0.4547,0.4568,0.46,0.463,0.4657,0.4712,0.466,0.4662,0.4677,0.4811,0.4814,0.4824,0.473,0.4732,0.4733,0.4818,0,0.3831,0.3905,0.3974,0.404,0.4087,0.4174,0.4244,0.4326,0.4401,0.4481,0.4532,0.4613,0.459,0.4633,0.4653,0.472,0.4737,0.4688,0.4781,0.4783,0.4767,0.4835,0.4754,0.4823,0.4828,0.4829,0.483,0,0.383,0.3884,0.3941,0.4049,0.4078,0.4124,0.4246,0.4318,0.4452,0.452,0.4595,0.4655,0.4727,0.4697,0.4787,0.4761,0.4775,0.4801,0.4806,0.4809,0.4804,0.4783,0.484,0.4799,0.4845,0.4844,0.4843,0,0.3754,0.3858,0.3896,0.3934,0.4066,0.4103,0.4174,0.4314,0.44,0.4549,0.4625,0.472,0.4788,0.4822,0.4874,0.4842,0.4969,0.4935,0.4942,0.4942,0.489,0.4883,0.4902,0.4973,0.4973,0.4972,0.4972,0,0.3728,0.3758,0.3859,0.3881,0.3945,0.4049,0.4138,0.4245,0.4403,0.4505,0.4625,0.4729,0.4822,0.4908,0.4917,0.4978,0.5005,0.4957,0.4973,0.4892,0.4885,0.486,0.4832,0.4975,0.4975,0.4974,0.4974,0,0.3649,0.3714,0.3763,0.3874,0.3912,0.3953,0.4114,0.4181,0.435,0.449,0.4545,0.476,0.4893,0.4972,0.5072,0.5048,0.4997,0.51,0.4999,0.5001,0.4947,0.4922,0.4736,0.4571,0.512,0.5121,0.5121,0,0.3618,0.3633,0.3732,0.3753,0.3799,0.3882,0.3945,0.4135,0.4225,0.45,0.4557,0.4767,0.4911,0.5087,0.5127,0.5184,0.502,0.5095,0.5006,0.4949,0.4934,0.4708,0.4563,0.4941,0.494,0.494,0.4939,0,0.3553,0.3581,0.3616,0.3667,0.3713,0.3779,0.3885,0.3962,0.4182,0.4333,0.4544,0.4698,0.494,0.5024,0.5134,0.5141,0.4916,0.508,0.505,0.4825,0.455,0.4397,0.4876,0.4932,0.4933,0.4933,0.4934,0.4934,0.3487,0.3491,0.3529,0.3567,0.3613,0.3648,0.3662,0.3803,0.395,0.415,0.4399,0.4593,0.4883,0.507,0.5034,0.5011,0.4877,0.4909,0.4895,0.4677,0.4473,0.4937,0.4995,0.4996,0.4997,0.4998,0.4998,0,0.3394,0.3404,0.3429,0.3458,0.3443,0.3512,0.3594,0.3593,0.3696,0.3983,0.4174,0.4511,0.4686,0.4856,0.5011,0.4891,0.4588,0.4765,0.4444,0.4312,0.4792,0.4746,0.4718,0.4718,0.4718,0.4718,0.4718,0.4718,0.3341,0.3314,0.3326,0.3272,0.328,0.3222,0.3224,0.3271,0.3436,0.366,0.3878,0.4118,0.4666,0.5045,0.505,0.4891,0.4485,0.4312,0.42,0.4634,0.4644,0.4655,0.4606,0.4549,0.4549,0.3545,0.3539,0.3534]},{"header":{"parameterUnit":"m.s-1","parameterCategory":2,"la1":30.2991,"la2":30.254,"lo1":-89.0895,"lo2":-89.0444,"dy":0.0017,"dx":0.0017,"nx":28,"ny":28,"refTime":"2025-01-09T09:00:00:Z","depth":"0","parameterNumber":3,"parameterNumberName":"V-component_of_CURRENTS"},"data":[0,0,0,0,0,0,0,0,0,0,0,0,0,0,0,0,0,0,0,0,0,0,0,0,0,0,0,0,0,0,0,0,0,0,0,0,0,0,0,0,0,0,0,0,0,0,0,0,0,0,0,0,0,0,0,0,0,0,0.0003,0.0003,0,-0.0083,-0.0084,-0.0085,-0.0154,-0.0154,-0.0155,-0.0156,-0.0268,-0.027,-0.0272,0,0,0,0,0,0,0,0,0,0,0,0,0,0.006,0.006,0.0003,0.0002,0.0001,-0.0083,-0.0084,-0.0085,-0.0154,-0.0154,-0.0155,-0.0156,-0.0267,-0.027,-0.0273,0,0,0,0,0,0,0,0,0,0,0,0,0,0.001,0.0059,0.0004,-0.0042,-0.0047,-0.0083,-0.0084,-0.0086,-0.0154,-0.0154,-0.0155,-0.0156,-0.0266,-0.0269,-0.0273,-0.0278,0,0,-0.0284,-0.0286,0,0,0,0,0,0,0,0,0.0013,0.0008,-0.0034,-0.0039,-0.0045,-0.0108,-0.0105,-0.0151,-0.0153,-0.0114,-0.0156,-0.0157,-0.0215,-0.0223,-0.0238,-0.0283,-0.0288,-0.0285,-0.0287,-0.0288,-0.0289,0,0,0,0,0,0,0,0.0017,0.0011,-0.0032,-0.0035,-0.0042,-0.0075,-0.0083,-0.0114,-0.016,-0.0118,-0.0123,-0.013,-0.0219,-0.0235,-0.0242,-0.0289,-0.0284,-0.0288,-0.029,-0.0291,-0.0332,-0.0331,0,0,0,0,0,0,0.0033,0.0015,-0.0029,-0.0034,-0.0016,-0.0075,-0.0084,-0.0087,-0.0159,-0.017,-0.013,-0.0133,-0.0228,-0.0237,-0.0246,-0.0231,-0.0288,-0.0292,-0.0294,-0.0334,-0.0332,-0.0331,0,0,0,0,0,0,0.0034,0.003,-0.0025,-0.0011,-0.0021,-0.0075,-0.0078,-0.0089,-0.0101,-0.0168,-0.018,-0.0131,-0.0229,-0.0241,-0.0263,-0.0237,-0.0293,-0.0297,-0.0335,-0.0333,-0.0332,-0.0216,0,0,0,0,0,0,0.0037,0.0031,0.0035,-0.001,-0.0021,-0.0027,-0.0078,-0.009,-0.0105,-0.011,-0.0173,-0.0185,-0.0231,-0.0257,-0.0266,-0.0243,-0.0299,-0.0336,-0.0334,-0.0332,-0.0221,-0.0211,-0.0202,0,0,0,0,0,0.0039,0.006,0.0036,0.003,-0.0014,-0.0026,-0.0034,-0.0077,-0.0103,-0.0095,-0.0142,-0.0183,-0.0251,-0.0259,-0.027,-0.0247,-0.0337,-0.0335,-0.0332,-0.0226,-0.0213,-0.0202,0,0,0,0,0,0,0.0093,0.0053,0.0026,0.0035,0.0011,-0.0037,-0.0035,-0.0065,-0.0096,-0.0105,-0.017,-0.0184,-0.0196,-0.0235,-0.0242,-0.0253,-0.03,-0.03,-0.0215,-0.0204,-0.0194,-0.0173,-0.0302,0,0,0,0,0,0.0106,0.0105,0.0065,0.0072,0.0063,0.0015,0.0003,-0.0024,-0.0059,-0.0074,-0.0119,-0.0164,-0.0195,-0.0209,-0.0247,-0.0248,-0.03,-0.0241,-0.0231,-0.0222,-0.0213,-0.027,-0.0265,-0.0323,-0.0323,-0.0323,0,0,0.0127,0.0106,0.0105,0.0082,0.0057,0.0068,0.0006,0.0,0.001,-0.008,-0.0081,-0.0133,-0.0189,-0.0195,-0.0203,-0.0223,-0.0232,-0.0219,-0.0211,-0.0207,-0.0267,-0.0262,-0.0257,-0.0321,-0.0322,-0.0322,0,0,0.0183,0.0154,0.0175,0.0164,0.0136,0.0111,0.0117,0.0076,0.0057,0.0046,-0.0015,-0.0048,-0.0095,-0.0127,-0.0151,-0.0107,-0.0182,-0.0118,-0.0047,-0.0102,-0.0097,-0.0094,-0.0146,-0.0149,-0.0108,-0.0107,-0.0107,0,0.021,0.023,0.0182,0.0204,0.0206,0.0141,0.0174,0.0152,0.0109,0.0103,0.0062,-0.0011,-0.0061,-0.0067,-0.0055,-0.0084,-0.013,-0.0085,-0.0088,-0.0087,-0.0086,-0.014,-0.0144,-0.0102,-0.0102,-0.0103,-0.0103,0,0.0282,0.0298,0.0314,0.0317,0.0315,0.0333,0.0298,0.0293,0.0255,0.0222,0.0196,0.0116,0.0075,0.0054,0.0011,0.0006,-0.0034,-0.0073,-0.0116,-0.0073,-0.0133,-0.0139,-0.0093,-0.0095,-0.0097,-0.0099,0,0,0.0345,0.0362,0.0366,0.0393,0.0376,0.039,0.0407,0.0406,0.0424,0.0356,0.0365,0.0294,0.0234,0.0204,0.0139,0.009,0.0056,0.0023,0.0017,-0.0024,-0.0066,-0.0093,-0.0104,0.0013,0.0012,0.0012,-0.0109,0,0.0416,0.0488,0.0471,0.0544,0.0581,0.0538,0.0562,0.0547,0.0517,0.0508,0.0411,0.0389,0.0297,0.0278,0.0215,0.0097,0.0043,0.0092,-0.0107,-0.0112,-0.0138,-0.011,-0.0084,-0.0189,-0.0116,-0.0118,-0.0118,0,0.0493,0.0532,0.0613,0.0664,0.0675,0.0703,0.0732,0.0752,0.0714,0.0685,0.0631,0.0545,0.047,0.038,0.0197,0.0231,0.0098,-0.0006,-0.0014,-0.0084,-0.0151,-0.0224,-0.0205,-0.0471,-0.013,-0.0129,-0.0128,0,0.0567,0.0637,0.0708,0.0724,0.0762,0.079,0.0813,0.0802,0.0844,0.0802,0.0808,0.0682,0.0631,0.0448,0.0228,0.0211,0.0014,-0.004,-0.0192,-0.0196,-0.0234,-0.024,-0.0491,-0.0171,-0.0171,-0.0171,-0.017,0,0.0651,0.071,0.075,0.0788,0.0888,0.0877,0.0971,0.097,0.0986,0.1049,0.091,0.0921,0.0644,0.0494,0.0275,0.003,0.0046,-0.0173,-0.0225,-0.0192,-0.0193,-0.0476,-0.0658,-0.0175,-0.0174,-0.0174,-0.0173,0,0.0718,0.0739,0.0834,0.0894,0.0925,0.0997,0.1099,0.1165,0.1157,0.1233,0.1226,0.1102,0.091,0.0621,0.0324,0.011,-0.0302,-0.0228,-0.0168,-0.0211,-0.0597,-0.0773,-0.113,-0.1246,-0.0413,-0.0415,-0.0416,0,0.0759,0.0812,0.0921,0.0992,0.1024,0.1132,0.1211,0.1251,0.1341,0.1357,0.141,0.1244,0.1177,0.0727,0.031,-0.0081,-0.0355,-0.0328,-0.0359,-0.0612,-0.0848,-0.0988,-0.1068,-0.037,-0.037,-0.0371,-0.0371,0,0.0839,0.0871,0.0948,0.1101,0.1201,0.1335,0.1457,0.1561,0.1613,0.168,0.1741,0.1687,0.1249,0.0887,0.0326,0.0025,-0.054,-0.0352,-0.0634,-0.0851,-0.1002,-0.1136,-0.0303,-0.0376,-0.0376,-0.0375,-0.0375,-0.0375,0.0897,0.0969,0.1074,0.1224,0.1347,0.1518,0.1664,0.1804,0.1974,0.2119,0.2029,0.2038,0.1445,0.07,0.0236,-0.0572,-0.0611,-0.0791,-0.0987,-0.1106,-0.1217,-0.0389,-0.0507,-0.0508,-0.0508,-0.0508,-0.0508,0,0.0971,0.1057,0.1196,0.1373,0.1529,0.1584,0.1816,0.1988,0.2221,0.2365,0.2442,0.2186,0.1451,0.0671,-0.0418,-0.1042,-0.129,-0.1411,-0.1609,-0.166,-0.093,-0.0922,-0.1109,-0.1108,-0.1108,-0.1108,-0.1108,-0.1107,0.1009,0.1147,0.1222,0.149,0.1628,0.187,0.2021,0.2277,0.2468,0.2707,0.2764,0.2749,0.2167,0.007,-0.1327,-0.1677,-0.2135,-0.2283,-0.2498,-0.2007,-0.1964,-0.1922,-0.1955,-0.2355,-0.2357,-0.3103,-0.3111,-0.3117]}],[{"header":{"parameterUnit":"m.s-1","parameterCategory":2,"la1":30.2991,"la2":30.254,"lo1":-89.0895,"lo2":-89.0444,"dy":0.0017,"dx":0.0017,"nx":28,"ny":28,"refTime":"2025-01-09T09:00:00:Z","depth":"2","parameterNumber":2,"parameterNumberName":"U-component_of_CURRENTS"},"data":[0,0,0,0,0,0,0,0,0,0,0,0,0,0,0,0,0,0,0,0,0,0,0,0,0,0,0,0,0,0,0,0,0,0,0,0,0,0,0,0,0,0,0,0,0,0,0,0,0,0,0,0,0,0,0,0,0,0,0.3883,0.3884,0,0.397,0.3971,0.3972,0.3996,0.3996,0.3996,0.3996,0.4089,0.4092,0.4094,0,0,0,0,0,0,0,0,0,0,0,0,0,0.3755,0.3757,0.3883,0.3885,0.3886,0.397,0.3971,0.3972,0.3996,0.3996,0.3996,0.3995,0.4088,0.4091,0.4095,0,0,0,0,0,0,0,0,0,0,0,0,0,0.3821,0.3758,0.3883,0.391,0.3914,0.397,0.3971,0.3972,0.3996,0.3996,0.3996,0.3995,0.4087,0.4091,0.4095,0.4127,0,0,0.4107,0.4109,0,0,0,0,0,0,0,0,0.3817,0.3825,0.3905,0.3909,0.3913,0.3975,0.3961,0.4025,0.3996,0.3962,0.3996,0.3995,0.4054,0.406,0.4073,0.4131,0.4135,0.4108,0.411,0.4112,0.4113,0,0,0,0,0,0,0,0.3812,0.3821,0.3915,0.3906,0.3911,0.3924,0.3933,0.3973,0.4006,0.3965,0.3968,0.3982,0.4055,0.4069,0.4076,0.4137,0.4108,0.4111,0.4114,0.4115,0.4267,0.4269,0,0,0,0,0,0,0.3807,0.3817,0.3912,0.3918,0.3866,0.3927,0.3936,0.3953,0.4006,0.4015,0.3982,0.3983,0.4062,0.4071,0.4079,0.4155,0.4112,0.4116,0.4118,0.4266,0.4268,0.4269,0,0,0,0,0,0,0.3804,0.3815,0.3909,0.3871,0.3885,0.393,0.3948,0.3955,0.3979,0.402,0.4028,0.4,0.4063,0.4073,0.4122,0.4158,0.4118,0.4121,0.4264,0.4266,0.4269,0.4286,0,0,0,0,0,0,0.38,0.3813,0.3826,0.3871,0.3887,0.3953,0.3949,0.3957,0.3989,0.3991,0.4038,0.4046,0.4063,0.4116,0.4126,0.4163,0.4124,0.4262,0.4265,0.4268,0.4283,0.4288,0.4293,0,0,0,0,0,0.3795,0.3812,0.3826,0.3837,0.3901,0.3954,0.3963,0.3992,0.399,0.4009,0.4035,0.4045,0.4142,0.412,0.4132,0.4171,0.426,0.4264,0.4268,0.4281,0.4287,0.4293,0,0,0,0,0,0,0.3757,0.3818,0.3833,0.3866,0.3913,0.3959,0.3982,0.3998,0.4034,0.4037,0.4062,0.4072,0.4134,0.4148,0.4123,0.4224,0.4205,0.4211,0.4211,0.4218,0.4223,0.4209,0.4128,0,0,0,0,0,0.3757,0.3787,0.3845,0.3871,0.3898,0.3941,0.3966,0.399,0.4027,0.4042,0.4073,0.4111,0.4158,0.4182,0.4225,0.4275,0.4287,0.4309,0.4314,0.4318,0.4316,0.4361,0.4369,0.4281,0.4281,0.4281,0,0,0.3744,0.3785,0.3799,0.3866,0.3902,0.3946,0.3955,0.4002,0.4036,0.4049,0.4099,0.4134,0.4177,0.4236,0.4265,0.4251,0.4353,0.4323,0.4326,0.4321,0.4365,0.4374,0.4381,0.4284,0.4283,0.4283,0,0,0.3739,0.3778,0.3805,0.3851,0.392,0.3954,0.397,0.403,0.4056,0.4111,0.4132,0.4177,0.4246,0.4279,0.4305,0.4363,0.4381,0.439,0.44,0.4444,0.4451,0.4457,0.4489,0.4498,0.4387,0.4387,0.4387,0,0.3721,0.3767,0.3819,0.3865,0.3902,0.3958,0.3996,0.4039,0.4103,0.4131,0.4131,0.4238,0.4265,0.4339,0.4355,0.4374,0.4399,0.4371,0.4448,0.4455,0.4461,0.4492,0.4502,0.4388,0.4388,0.4388,0.4388,0,0.3741,0.3783,0.3806,0.3881,0.3929,0.3974,0.4045,0.4091,0.4128,0.4168,0.4249,0.4289,0.4348,0.4372,0.4378,0.4449,0.4453,0.4452,0.4427,0.4471,0.4501,0.4511,0.439,0.4389,0.4389,0.4389,0,0,0.3686,0.3796,0.3804,0.3839,0.3943,0.3979,0.4054,0.4132,0.4185,0.4241,0.4306,0.437,0.4393,0.4423,0.445,0.4479,0.4538,0.4481,0.4483,0.4502,0.4637,0.4632,0.4642,0.4555,0.4557,0.4558,0.4642,0,0.3684,0.3753,0.3817,0.3879,0.3923,0.4006,0.4073,0.4152,0.4226,0.4306,0.4357,0.4436,0.4416,0.446,0.4483,0.4545,0.4565,0.4516,0.4602,0.4604,0.4585,0.4654,0.4276,0.4318,0.4651,0.4653,0.4654,0,0.3684,0.3734,0.3789,0.389,0.3917,0.3963,0.4082,0.4151,0.4282,0.4349,0.4427,0.4485,0.4558,0.453,0.4619,0.4595,0.4608,0.4632,0.4636,0.463,0.4617,0.433,0.4324,0.467,0.4669,0.4668,0.4667,0,0.3615,0.3712,0.3749,0.3784,0.3908,0.3947,0.4017,0.4153,0.4235,0.4384,0.446,0.4554,0.4622,0.4657,0.4707,0.4676,0.48,0.4765,0.4765,0.4764,0.4457,0.4428,0.4805,0.4805,0.4804,0.4804,0.4804,0,0.3591,0.362,0.3716,0.3737,0.3801,0.39,0.3989,0.4093,0.4247,0.4345,0.4465,0.4565,0.4658,0.4742,0.475,0.4807,0.4836,0.4782,0.4794,0.4456,0.4427,0.4738,0.4729,0.4807,0.4807,0.4806,0.4806,0,0.3518,0.3579,0.3626,0.3733,0.3771,0.3813,0.3969,0.4034,0.4201,0.4337,0.4393,0.4599,0.4728,0.4805,0.4901,0.4875,0.4923,0.4921,0.4525,0.449,0.4838,0.4829,0.4932,0.4932,0.4933,0.4933,0.4934,0,0.3488,0.3503,0.3599,0.362,0.3666,0.3749,0.3809,0.3993,0.408,0.4346,0.44,0.4605,0.4734,0.4901,0.4892,0.4933,0.4973,0.4597,0.4469,0.4854,0.4856,0.4846,0.4837,0.4056,0.4049,0.4044,0.4039,0,0.3426,0.3455,0.3488,0.354,0.3585,0.3647,0.3751,0.3823,0.4036,0.4178,0.4377,0.4518,0.4706,0.4617,0.4701,0.4662,0.4569,0.4493,0.4986,0.4115,0.4045,0.4042,0.4058,0.399,0.3995,0.3998,0.4001,0.4003,0.3366,0.3369,0.3406,0.3443,0.3489,0.3518,0.353,0.3652,0.3786,0.3933,0.4181,0.4248,0.4337,0.4302,0.4201,0.411,0.442,0.4191,0.42,0.4217,0.4133,0.4072,0.4004,0.4009,0.4013,0.4017,0.402,0,0.3269,0.3286,0.3309,0.3335,0.331,0.3389,0.3462,0.342,0.3494,0.3676,0.3814,0.3581,0.3588,0.3652,0.3461,0.3517,0.3398,0.336,0.3134,0.3191,0.3239,0.3095,0.2696,0.2691,0.2687,0.2683,0,0,0.3217,0.3185,0.3195,0.3134,0.3149,0.3071,0.3069,0.3043,0.3108,0.3102,0.3121,0.3408,0.3576,0.3064,0.3037,0.2821,0.2966,0.2721,0.3797,0.3589,0.363,0.3757,0.3608,0,0,0,0,0]},{"header":{"parameterUnit":"m.s-1","parameterCategory":2,"la1":30.2991,"la2":30.254,"lo1":-89.0895,"lo2":-89.0444,"dy":0.0017,"dx":0.0017,"nx":28,"ny":28,"refTime":"2025-01-09T09:00:00:Z","depth":"2","parameterNumber":3,"parameterNumberName":"V-component_of_CURRENTS"},"data":[0,0,0,0,0,0,0,0,0,0,0,0,0,0,0,0,0,0,0,0,0,0,0,0,0,0,0,0,0,0,0,0,0,0,0,0,0,0,0,0,0,0,0,0,0,0,0,0,0,0,0,0,0,0,0,0,0,0,0.0069,0.0069,0,-0.001,-0.0011,-0.0012,-0.0077,-0.0078,-0.0079,-0.0079,-0.0188,-0.019,-0.0192,0,0,0,0,0,0,0,0,0,0,0,0,0,0.0121,0.0121,0.007,0.0069,0.0068,-0.001,-0.0011,-0.0012,-0.0077,-0.0078,-0.0079,-0.0079,-0.0187,-0.019,-0.0192,0,0,0,0,0,0,0,0,0,0,0,0,0,0.0076,0.0121,0.007,0.0026,0.0021,-0.0009,-0.0011,-0.0012,-0.0077,-0.0078,-0.0079,-0.008,-0.0186,-0.0189,-0.0193,-0.0194,0,0,-0.0203,-0.0205,0,0,0,0,0,0,0,0,0.0079,0.0074,0.0033,0.0029,0.0024,-0.0034,-0.0032,-0.0074,-0.0077,-0.004,-0.0079,-0.008,-0.0138,-0.0146,-0.0158,-0.0199,-0.0203,-0.0204,-0.0206,-0.0207,-0.0208,0,0,0,0,0,0,0,0.0082,0.0077,0.0038,0.0032,0.0026,-0.0005,-0.0012,-0.0041,-0.0083,-0.0043,-0.0048,-0.0056,-0.0141,-0.0155,-0.0161,-0.0205,-0.0203,-0.0206,-0.0209,-0.021,-0.0247,-0.0246,0,0,0,0,0,0,0.0096,0.008,0.004,0.0036,0.0049,-0.0004,-0.0013,-0.0015,-0.0082,-0.0093,-0.0055,-0.0059,-0.0149,-0.0157,-0.0166,-0.0153,-0.0207,-0.021,-0.0212,-0.0248,-0.0247,-0.0246,0,0,0,0,0,0,0.0097,0.0093,0.0044,0.0056,0.0047,-0.0004,-0.0006,-0.0016,-0.0029,-0.0091,-0.0103,-0.0058,-0.015,-0.0161,-0.0182,-0.0158,-0.0212,-0.0215,-0.025,-0.0248,-0.0246,-0.0138,0,0,0,0,0,0,0.0099,0.0094,0.0098,0.0057,0.0047,0.0043,-0.0006,-0.0017,-0.0032,-0.0038,-0.0097,-0.0109,-0.0151,-0.0176,-0.0185,-0.0164,-0.0217,-0.0251,-0.0249,-0.0247,-0.0143,-0.0133,-0.0125,0,0,0,0,0,0.0101,0.0122,0.0099,0.0094,0.0054,0.0044,0.0037,-0.0004,-0.0031,-0.0022,-0.0067,-0.0107,-0.017,-0.0178,-0.0189,-0.0168,-0.0252,-0.0249,-0.0247,-0.0147,-0.0135,-0.0125,0,0,0,0,0,0,0.0153,0.0116,0.009,0.0099,0.0077,0.0033,0.0035,0.0006,-0.0023,-0.0033,-0.0094,-0.0107,-0.0119,-0.0156,-0.0163,-0.0173,-0.0217,-0.0217,-0.0138,-0.0127,-0.0118,-0.0098,-0.022,0,0,0,0,0,0.0165,0.0165,0.0127,0.0135,0.0127,0.0081,0.007,0.0044,0.0011,-0.0003,-0.0045,-0.0088,-0.0117,-0.0131,-0.0165,-0.0167,-0.0217,-0.0161,-0.0151,-0.0143,-0.0135,-0.0191,-0.0187,-0.0238,-0.0238,-0.0238,0,0,0.0185,0.0166,0.0165,0.0145,0.0121,0.0133,0.0072,0.0067,0.0076,-0.0009,-0.0009,-0.0059,-0.0111,-0.0116,-0.0124,-0.0143,-0.0154,-0.014,-0.0133,-0.0129,-0.0188,-0.0184,-0.0179,-0.0237,-0.0237,-0.0237,0,0,0.024,0.0212,0.0233,0.0222,0.0196,0.0173,0.0177,0.0139,0.0121,0.0111,0.0053,0.002,-0.0023,-0.0054,-0.0075,-0.0034,-0.0106,-0.0044,0.0022,-0.0032,-0.0029,-0.0026,-0.0078,-0.0081,-0.0035,-0.0035,-0.0035,0,0.0265,0.0286,0.024,0.0262,0.0264,0.0201,0.0234,0.0213,0.0173,0.0166,0.0126,0.0057,0.0009,0.0003,0.0015,-0.0012,-0.0057,-0.0014,-0.002,-0.0019,-0.0018,-0.0072,-0.0077,-0.0029,-0.003,-0.0031,-0.0031,0,0.0336,0.0351,0.0367,0.0371,0.037,0.0388,0.0354,0.035,0.0312,0.028,0.0254,0.0178,0.0139,0.0118,0.0077,0.007,0.0032,-0.0005,-0.0046,-0.0006,-0.0066,-0.0073,-0.0022,-0.0024,-0.0025,-0.0027,0,0,0.0396,0.0414,0.0418,0.0445,0.043,0.0444,0.046,0.0459,0.0476,0.0409,0.0417,0.0348,0.0289,0.0261,0.0198,0.0149,0.0112,0.0084,0.0079,0.0037,-0.0009,-0.0037,-0.0048,0.0071,0.007,0.007,-0.0051,0,0.0465,0.0536,0.0521,0.0593,0.063,0.0588,0.0611,0.0597,0.0566,0.0557,0.0461,0.044,0.0351,0.0332,0.0268,0.0153,0.0098,0.0148,-0.0046,-0.0051,-0.0078,-0.0055,-0.0018,-0.0123,-0.0059,-0.006,-0.0061,0,0.0541,0.058,0.066,0.071,0.0721,0.0749,0.0777,0.0796,0.0758,0.0729,0.0675,0.0591,0.0516,0.0427,0.0246,0.0281,0.015,0.0048,0.004,-0.0028,-0.0092,-0.0155,-0.0138,-0.0073,-0.0072,-0.0071,-0.007,0,0.0613,0.0682,0.0752,0.0767,0.0806,0.0833,0.0856,0.0845,0.0885,0.0842,0.0848,0.0722,0.0671,0.0491,0.0275,0.0259,0.0063,0.0013,-0.0138,-0.0143,-0.0169,-0.0174,-0.0119,-0.0119,-0.0119,-0.0118,-0.0118,0,0.0694,0.0752,0.0793,0.083,0.0928,0.0918,0.1009,0.1008,0.1023,0.1083,0.0947,0.0955,0.0683,0.0535,0.032,0.0078,0.0093,-0.0122,-0.0173,-0.013,-0.013,-0.0136,-0.0136,-0.0123,-0.0122,-0.0121,-0.012,0,0.076,0.0781,0.0874,0.0933,0.0964,0.1035,0.1134,0.1199,0.119,0.1263,0.1256,0.1131,0.094,0.0656,0.0363,0.0154,-0.0086,-0.0179,-0.0109,-0.0149,-0.027,-0.0263,-0.036,-0.0362,-0.0364,-0.0365,-0.0366,0,0.0799,0.0852,0.0959,0.1028,0.106,0.1166,0.1244,0.1283,0.1371,0.1383,0.1434,0.1268,0.1195,0.075,0.0344,-0.0041,-0.0093,-0.027,-0.0298,-0.0254,-0.0294,-0.0285,-0.0276,-0.0295,-0.0295,-0.0296,-0.0296,0,0.0878,0.0908,0.0984,0.1135,0.1233,0.1366,0.1485,0.1585,0.1635,0.1696,0.1748,0.1688,0.1257,0.0884,0.0335,0.0064,-0.0209,-0.0291,-0.0265,-0.0232,-0.02,-0.0237,-0.0229,-0.03,-0.0299,-0.0299,-0.0299,-0.0299,0.0933,0.1004,0.1108,0.1255,0.1377,0.1544,0.1686,0.1815,0.1974,0.2078,0.1997,0.1914,0.1456,0.0775,0.0289,-0.0242,-0.0212,-0.0392,-0.0387,-0.0383,-0.0346,-0.0319,-0.0433,-0.0434,-0.0434,-0.0435,-0.0435,0,0.1006,0.1089,0.1227,0.1401,0.1553,0.1609,0.1835,0.198,0.2188,0.2245,0.2287,0.1853,0.1408,0.0865,0.0099,-0.0347,-0.0393,-0.0508,-0.0448,-0.044,-0.0434,-0.0398,-0.0501,-0.0503,-0.0504,-0.0505,0,0,0.1042,0.1178,0.1251,0.1513,0.1649,0.1879,0.2026,0.2226,0.2338,0.2427,0.2369,0.2238,0.1583,0.1023,0.0401,-0.0043,-0.0145,-0.015,-0.0045,0.0108,0.0119,-0.0316,-0.0246,0,0,0,0,0]}],[{"header":{"parameterUnit":"m.s-1","parameterCategory":2,"la1":30.2991,"la2":30.254,"lo1":-89.0895,"lo2":-89.0444,"dy":0.0017,"dx":0.0017,"nx":28,"ny":28,"refTime":"2025-01-09T09:00:00:Z","depth":"4","parameterNumber":2,"parameterNumberName":"U-component_of_CURRENTS"},"data":[0,0,0,0,0,0,0,0,0,0,0,0,0,0,0,0,0,0,0,0,0,0,0,0,0,0,0,0,0,0,0,0,0,0,0,0,0,0,0,0,0,0,0,0,0,0,0,0,0,0,0,0,0,0,0,0,0,0,0.2453,0.2455,0,0.2562,0.2563,0.2564,0.2652,0.2653,0.2655,0.2656,0.2728,0.2728,0.2729,0,0,0,0,0,0,0,0,0,0,0,0,0,0.2309,0.2311,0.2453,0.2455,0.2457,0.2562,0.2563,0.2564,0.2652,0.2653,0.2655,0.2656,0.2728,0.2728,0.2729,0,0,0,0,0,0,0,0,0,0,0,0,0,0.2385,0.2311,0.2453,0.2517,0.2524,0.2562,0.2563,0.2564,0.2651,0.2653,0.2655,0.2657,0.2727,0.2728,0.2729,0.2694,0,0,0.2732,0.2733,0,0,0,0,0,0,0,0,0.2381,0.239,0.2505,0.2512,0.2521,0.26,0.2539,0.2608,0.2651,0.2597,0.2656,0.2658,0.2683,0.2688,0.2697,0.2697,0.27,0.2732,0.2733,0.2733,0.2733,0,0,0,0,0,0,0,0.2375,0.2386,0.2491,0.2507,0.2517,0.2537,0.2549,0.2552,0.2623,0.2602,0.261,0.263,0.2687,0.2696,0.27,0.2701,0.2732,0.2733,0.2734,0.2734,0.2897,0.2901,0,0,0,0,0,0,0.2371,0.2381,0.2488,0.2495,0.246,0.2538,0.2552,0.2568,0.2624,0.2636,0.2628,0.2634,0.2693,0.2698,0.2702,0.2834,0.2733,0.2734,0.2735,0.2893,0.2898,0.2902,0,0,0,0,0,0,0.2367,0.2379,0.2483,0.2444,0.246,0.2539,0.2556,0.2569,0.2637,0.2645,0.2656,0.269,0.2695,0.2701,0.2775,0.2831,0.2735,0.2735,0.2889,0.2895,0.29,0.2987,0,0,0,0,0,0,0.2362,0.2377,0.2411,0.2444,0.2462,0.2541,0.2555,0.257,0.2645,0.2655,0.27,0.2706,0.2697,0.2774,0.2776,0.283,0.2736,0.2884,0.2891,0.2898,0.298,0.2995,0.3009,0,0,0,0,0,0.2357,0.2386,0.2411,0.2426,0.2498,0.2543,0.2555,0.2613,0.2647,0.2681,0.2732,0.2707,0.2821,0.2778,0.2779,0.2835,0.2881,0.2889,0.2898,0.2973,0.2992,0.3008,0,0,0,0,0,0,0.2343,0.2399,0.2427,0.2475,0.2525,0.2561,0.2609,0.2642,0.2708,0.2738,0.2742,0.2751,0.2838,0.2832,0.2784,0.291,0.2851,0.2861,0.2909,0.2926,0.294,0.2931,0.2737,0,0,0,0,0,0.2354,0.2396,0.2445,0.249,0.252,0.2574,0.2612,0.2652,0.2703,0.2737,0.2771,0.2819,0.2862,0.2893,0.2922,0.2978,0.297,0.3024,0.3038,0.305,0.3049,0.3097,0.3115,0.293,0.293,0.2929,0,0,0.2362,0.2401,0.2427,0.2492,0.2539,0.2586,0.2603,0.2676,0.273,0.273,0.283,0.2866,0.2891,0.2967,0.3006,0.2975,0.3104,0.3061,0.3071,0.3063,0.3108,0.3125,0.3141,0.2935,0.2934,0.2933,0,0,0.238,0.2437,0.2474,0.2521,0.2603,0.2634,0.2667,0.2737,0.2793,0.2877,0.2905,0.2982,0.3042,0.3076,0.3096,0.3208,0.3177,0.3233,0.3295,0.3343,0.3357,0.3369,0.3391,0.3405,0.3241,0.3241,0.3242,0,0.2392,0.2441,0.2493,0.2541,0.2591,0.2661,0.2711,0.2768,0.2859,0.2909,0.293,0.3066,0.3089,0.3178,0.3231,0.3236,0.3253,0.3219,0.3358,0.337,0.3381,0.34,0.3414,0.3247,0.3246,0.3245,0.3245,0,0.242,0.2484,0.2515,0.2596,0.2653,0.2715,0.2793,0.2872,0.295,0.3002,0.313,0.318,0.3259,0.3292,0.3296,0.3402,0.3385,0.3364,0.3301,0.3404,0.3419,0.3432,0.3254,0.3252,0.3251,0.3249,0,0,0.2382,0.2508,0.2526,0.2576,0.2694,0.2734,0.2844,0.2944,0.3029,0.3129,0.3232,0.3332,0.3376,0.3405,0.3434,0.3484,0.3585,0.3471,0.3471,0.3471,0.3686,0.3471,0.3464,0.3594,0.3597,0.3599,0.3666,0,0.2394,0.2479,0.2548,0.2645,0.2695,0.2801,0.2892,0.3,0.3105,0.3221,0.3305,0.3416,0.3414,0.3483,0.3532,0.358,0.3623,0.3568,0.3605,0.3605,0.3383,0.3473,0.3608,0.3675,0.3678,0.368,0.3681,0,0.2389,0.2453,0.2544,0.2676,0.2712,0.2789,0.2953,0.3045,0.3213,0.3304,0.3425,0.3495,0.3615,0.3593,0.3706,0.3677,0.3692,0.3709,0.3712,0.3482,0.3413,0.3552,0.3704,0.3702,0.37,0.3699,0.3697,0,0.2314,0.2447,0.2521,0.2568,0.2726,0.2808,0.2908,0.3079,0.3177,0.3375,0.3465,0.3599,0.3693,0.3743,0.3794,0.3771,0.3889,0.3851,0.3663,0.3648,0.3779,0.3764,0.3912,0.3912,0.3911,0.3911,0.3911,0,0.2273,0.234,0.2503,0.2543,0.2656,0.2783,0.2925,0.3054,0.3238,0.3343,0.3507,0.3596,0.3741,0.3821,0.3834,0.3785,0.3923,0.3678,0.3653,0.3817,0.3807,0.3787,0.3772,0.3914,0.3913,0.3913,0.3912,0,0.2176,0.2284,0.2378,0.2557,0.2625,0.2709,0.2926,0.3009,0.3214,0.3358,0.3431,0.3634,0.3735,0.3831,0.3926,0.3815,0.3807,0.3752,0.3932,0.3916,0.3521,0.351,0.3533,0.3526,0.352,0.3515,0.3511,0,0.2128,0.217,0.2367,0.2426,0.2519,0.2668,0.276,0.2983,0.3069,0.3341,0.3378,0.357,0.3672,0.3621,0.3748,0.3754,0.371,0.367,0.3575,0.351,0.3485,0.3483,0.348,0.3501,0.35,0.3498,0.3497,0,0.2034,0.2127,0.2202,0.2329,0.2436,0.2535,0.2688,0.2733,0.2968,0.3177,0.3248,0.3308,0.3411,0.3476,0.3515,0.3511,0.3676,0.3607,0.3618,0.3528,0.3472,0.3452,0.3457,0.3476,0.3479,0.3481,0.3482,0,0.1969,0.1995,0.2106,0.2197,0.2319,0.2358,0.2461,0.2551,0.2666,0.2958,0.2976,0.3175,0.3371,0.3352,0.3389,0.3374,0.3313,0.3184,0.3215,0.3239,0.3114,0.2998,0.2839,0,0,0,0,0,0.1885,0.189,0.196,0.2037,0.2145,0.2214,0.2386,0.2487,0.2715,0.2685,0.2824,0.2906,0.2971,0.3083,0.3009,0.3265,0.3329,0.3163,0.3196,0.3363,0.3386,0.3267,0,0,0,0,0,0,0.1822,0.188,0.1899,0.1881,0.1899,0.199,0.2084,0.2235,0.2237,0.2483,0.2535,0.2723,0.2834,0.2976,0.2949,0.2982,0.294,0.33,0.3293,0.3349,0.3371,0.339,0.3275,0,0,0,0,0]},{"header":{"parameterUnit":"m.s-1","parameterCategory":2,"la1":30.2991,"la2":30.254,"lo1":-89.0895,"lo2":-89.0444,"dy":0.0017,"dx":0.0017,"nx":28,"ny":28,"refTime":"2025-01-09T09:00:00:Z","depth":"4","parameterNumber":3,"parameterNumberName":"V-component_of_CURRENTS"},"data":[0,0,0,0,0,0,0,0,0,0,0,0,0,0,0,0,0,0,0,0,0,0,0,0,0,0,0,0,0,0,0,0,0,0,0,0,0,0,0,0,0,0,0,0,0,0,0,0,0,0,0,0,0,0,0,0,0,0,0.0159,0.0158,0,0.0112,0.0112,0.0111,0.0074,0.0073,0.0073,0.0072,0.0016,0.0015,0.0014,0,0,0,0,0,0,0,0,0,0,0,0,0,0.019,0.019,0.0159,0.0158,0.0158,0.0112,0.0112,0.0111,0.0074,0.0073,0.0072,0.0072,0.0016,0.0015,0.0014,0,0,0,0,0,0,0,0,0,0,0,0,0,0.0164,0.019,0.0159,0.0132,0.013,0.0112,0.0112,0.0111,0.0074,0.0073,0.0072,0.0072,0.0017,0.0015,0.0013,0.0019,0,0,0.0009,0.0008,0,0,0,0,0,0,0,0,0.0166,0.0164,0.0137,0.0134,0.0131,0.0097,0.0102,0.0079,0.0074,0.0096,0.0072,0.0071,0.0042,0.0038,0.0033,0.0016,0.0014,0.0009,0.0008,0.0007,0.0007,0,0,0,0,0,0,0,0.0168,0.0165,0.0142,0.0136,0.0133,0.0114,0.011,0.0098,0.0075,0.0094,0.0091,0.0084,0.004,0.0034,0.0031,0.0013,0.0009,0.0007,0.0006,0.0006,-0.0018,-0.0018,0,0,0,0,0,0,0.0173,0.0167,0.0143,0.014,0.0146,0.0114,0.011,0.011,0.0075,0.0068,0.0085,0.0083,0.0037,0.0033,0.0029,0.0039,0.0007,0.0006,0.0005,-0.0019,-0.0018,-0.0018,0,0,0,0,0,0,0.0174,0.0172,0.0145,0.0151,0.0146,0.0114,0.0115,0.0109,0.0102,0.0068,0.0061,0.0084,0.0037,0.0031,0.002,0.0036,0.0005,0.0003,-0.0019,-0.0019,-0.0018,0.0055,0,0,0,0,0,0,0.0176,0.0173,0.0177,0.0152,0.0146,0.0146,0.0115,0.0109,0.0099,0.0095,0.0064,0.0058,0.0036,0.0022,0.0018,0.0033,0.0002,-0.0019,-0.0019,-0.0018,0.0052,0.0058,0.0063,0,0,0,0,0,0.0177,0.0193,0.0178,0.0175,0.0153,0.0147,0.0143,0.0118,0.0099,0.0107,0.0079,0.0059,0.0023,0.0022,0.0017,0.0032,-0.002,-0.0019,-0.0018,0.005,0.0057,0.0063,0,0,0,0,0,0,0.0213,0.0189,0.0173,0.0181,0.0167,0.014,0.0144,0.0123,0.0108,0.0103,0.0066,0.0059,0.0055,0.0031,0.0031,0.0024,-0.0003,-0.0003,0.0051,0.0057,0.0062,0.0079,0.0001,0,0,0,0,0,0.0222,0.0225,0.0199,0.0207,0.0202,0.0172,0.0166,0.0149,0.0129,0.0122,0.0098,0.0071,0.0054,0.0046,0.0028,0.0028,-0.001,0.0032,0.0037,0.0042,0.0051,-0.0001,0.0001,-0.0016,-0.0016,-0.0016,0,0,0.0238,0.0225,0.0227,0.0214,0.02,0.021,0.0168,0.0166,0.0174,0.0119,0.0124,0.0091,0.0058,0.0057,0.0052,0.0039,0.0026,0.0043,0.0047,0.0054,0.0,0.0002,0.0003,-0.0015,-0.0016,-0.0016,0,0,0.0277,0.0261,0.0278,0.0272,0.0255,0.024,0.0242,0.0218,0.0207,0.0204,0.0165,0.0139,0.0118,0.0094,0.008,0.0102,0.0055,0.0097,0.014,0.009,0.0091,0.0092,0.0046,0.0041,0.01,0.01,0.0101,0,0.0296,0.0315,0.0283,0.03,0.0304,0.0259,0.0285,0.0272,0.0247,0.0243,0.0216,0.017,0.0137,0.013,0.0135,0.0116,0.008,0.0122,0.0098,0.0097,0.0097,0.0049,0.0043,0.0104,0.0104,0.0103,0.0103,0,0.0347,0.0363,0.0376,0.0382,0.0383,0.0398,0.0375,0.0374,0.0349,0.0327,0.0308,0.0252,0.0225,0.0206,0.0178,0.0163,0.0137,0.0111,0.0085,0.0103,0.0051,0.0044,0.0109,0.0108,0.0107,0.0106,0,0,0.0388,0.0409,0.0413,0.0437,0.0429,0.0441,0.0455,0.0456,0.0471,0.0422,0.0428,0.0374,0.033,0.031,0.0262,0.0213,0.017,0.0167,0.0162,0.0128,0.0062,0.0048,0.0038,0.0139,0.0138,0.0137,0.0028,0,0.0439,0.0494,0.0487,0.0547,0.0576,0.055,0.057,0.0561,0.0541,0.0535,0.0458,0.0445,0.0375,0.0363,0.0302,0.0209,0.0155,0.0202,0.0044,0.0039,0.003,0.0031,0.0135,0.0022,0.0021,0.0019,0.0019,0,0.0492,0.0523,0.0589,0.0635,0.0645,0.0674,0.0701,0.0718,0.069,0.0669,0.0626,0.0563,0.0495,0.0427,0.0268,0.0303,0.0192,0.0106,0.0099,0.0058,0.0013,-0.0002,0.0005,0.0006,0.0007,0.0008,0.0009,0,0.0538,0.0598,0.0657,0.0672,0.071,0.074,0.0765,0.0759,0.0793,0.0761,0.0767,0.0661,0.062,0.0467,0.0286,0.0278,0.01,0.0064,-0.0056,-0.0059,-0.0046,-0.0046,-0.0055,-0.0055,-0.0055,-0.0055,-0.0054,0,0.0589,0.064,0.069,0.0721,0.0806,0.0807,0.0888,0.089,0.0907,0.095,0.0847,0.0841,0.0627,0.0498,0.0318,0.0115,0.0121,-0.0047,-0.0087,-0.0013,-0.0008,-0.0052,-0.005,-0.0059,-0.0058,-0.0057,-0.0056,0,0.0626,0.0654,0.0734,0.0797,0.0832,0.0893,0.0991,0.1042,0.1043,0.1096,0.1092,0.0981,0.081,0.0584,0.0333,0.0174,-0.003,-0.0107,-0.0002,-0.0035,-0.0165,-0.0158,-0.0249,-0.0251,-0.0252,-0.0253,-0.0253,0,0.0646,0.069,0.0798,0.0861,0.0898,0.0997,0.1066,0.111,0.1172,0.1179,0.1206,0.1067,0.0957,0.0606,0.0352,0.0007,-0.0052,-0.0165,-0.018,-0.0155,-0.0185,-0.0176,-0.0168,-0.0255,-0.0256,-0.0256,-0.0256,0,0.0686,0.0726,0.0791,0.0926,0.1019,0.1133,0.1237,0.1292,0.1337,0.134,0.13,0.111,0.0915,0.0622,0.0352,0.0101,-0.0095,-0.0178,-0.0178,-0.0193,-0.0163,-0.019,-0.0181,-0.026,-0.026,-0.0259,-0.0259,0,0.0718,0.0771,0.0865,0.0984,0.1108,0.1226,0.1283,0.135,0.1407,0.1405,0.1388,0.1167,0.104,0.0671,0.0426,0.0175,0.0098,-0.0001,-0.0011,-0.001,0.0081,0.0155,0.0126,0,0,0,0,0,0.0743,0.0807,0.0919,0.1049,0.1174,0.1256,0.1376,0.1419,0.1462,0.1447,0.1423,0.1238,0.0871,0.0721,0.0469,0.0381,0.0042,0.0073,-0.008,-0.0283,-0.0278,-0.0214,0,0,0,0,0,0,0.0757,0.0858,0.0915,0.108,0.1182,0.1329,0.141,0.1445,0.1441,0.1439,0.1259,0.1161,0.0817,0.1022,0.0463,0.0386,0.0249,-0.0093,-0.01,-0.0285,-0.0281,-0.0277,-0.021,0,0,0,0,0]}]]